| time (UTC) | temp F | wind direction | speed knots | gust knots | rain 1hr in | rain 24hr in | rain mn in | humidity % | barometer mb |
| 20260905211504 | 87 | 63 | 0.0 | 0.9 | 0.00 | 0.10 | 0.10 | 74 | 1009.4 |
| 20260905204515 | 88 | 69 | 0.0 | 0.9 | 0.00 | 0.10 | 0.10 | 72 | 1009.8 |
| 20260905203004 | 88 | 62 | 0.0 | 2.6 | 0.00 | 0.10 | 0.10 | 69 | 1009.7 |
| 20260905201504 | 89 | 69 | 0.0 | 0.0 | 0.00 | 0.10 | 0.10 | 68 | 1009.8 |
| 20260905200005 | 88 | 42 | 0.0 | 0.9 | 0.00 | 0.10 | 0.10 | 66 | 1010.0 |
| 20260905193004 | 88 | 57 | 0.0 | 0.9 | 0.00 | 0.10 | 0.10 | 70 | 1010.5 |
| 20260905191504 | 87 | 51 | 0.0 | 2.6 | 0.00 | 0.10 | 0.10 | 68 | 1010.7 |
| 20260905190004 | 87 | 81 | 0.0 | 4.3 | 0.00 | 0.10 | 0.10 | 68 | 1011.1 |
| 20260905183004 | 86 | 51 | 0.0 | 1.7 | 0.00 | 0.10 | 0.10 | 71 | 1011.4 |
| 20260905180004 | 84 | 74 | 0.0 | 0.9 | 0.00 | 0.10 | 0.10 | 71 | 1011.3 |
| 20260905174504 | 84 | 105 | 0.0 | 0.9 | 0.00 | 0.10 | 0.10 | 74 | 1011.3 |
| 20260905173004 | 84 | 165 | 0.0 | 0.0 | 0.00 | 0.10 | 0.10 | 72 | 1011.1 |
| 20260905171504 | 85 | 189 | 0.0 | 0.0 | 0.00 | 0.10 | 0.10 | 72 | 1011.3 |
| 20260905170004 | 85 | 245 | 0.0 | 1.7 | 0.00 | 0.10 | 0.10 | 70 | 1011.1 |
| 20260905161503 | 83 | 232 | 0.0 | 0.9 | 0.00 | 0.10 | 0.10 | 73 | 1011.4 |
| 20260905160003 | 81 | 276 | 0.0 | 0.0 | 0.00 | 0.10 | 0.10 | 73 | 1011.5 |
| 20260905154504 | 80 | 62 | 0.0 | 0.9 | 0.00 | 0.10 | 0.10 | 77 | 1011.9 |
| 20260905153004 | 79 | 135 | 0.0 | 1.7 | 0.00 | 0.10 | 0.10 | 77 | 1011.7 |
| 20260905151504 | 78 | 90 | 0.0 | 1.7 | 0.00 | 0.10 | 0.10 | 80 | 1011.6 |
| 20260905150004 | 76 | 80 | 0.0 | 1.7 | 0.00 | 0.10 | 0.10 | 79 | 1011.6 |
| 20260905144504 | 75 | 81 | 0.9 | 2.6 | 0.00 | 0.10 | 0.10 | 84 | 1011.3 |
| 20260905143003 | 74 | 252 | 0.0 | 2.6 | 0.00 | 0.10 | 0.10 | 86 | 1010.7 |
| 20260905141504 | 73 | 241 | 0.9 | 2.6 | 0.00 | 0.10 | 0.10 | 87 | 1010.6 |
| 20260905140004 | 72 | 57 | 0.0 | 0.0 | 0.00 | 0.10 | 0.10 | 91 | 1010.9 |
| 20260905134504 | 70 | 57 | 0.0 | 0.0 | 0.00 | 0.10 | 0.10 | 93 | 1011.2 |
| 20260905133004 | 70 | 57 | 0.0 | 0.0 | 0.00 | 0.10 | 0.10 | 93 | 1011.6 |
| 20260905131504 | 69 | 57 | 0.0 | 0.0 | 0.00 | 0.10 | 0.10 | 93 | 1012.1 |
| 20260905130004 | 69 | 57 | 0.0 | 0.0 | 0.00 | 0.10 | 0.10 | 93 | 1012.5 |
| 20260905124504 | 69 | 57 | 0.0 | 0.0 | 0.00 | 0.10 | 0.10 | 94 | 1012.7 |
| 20260905121503 | 68 | 57 | 0.0 | 0.0 | 0.00 | 0.10 | 0.10 | 93 | 1012.9 |
| 20260905120004 | 68 | 57 | 0.0 | 0.0 | 0.00 | 0.10 | 0.10 | 93 | 1012.6 |
| 20260905114504 | 68 | 57 | 0.0 | 0.0 | 0.00 | 0.10 | 0.10 | 93 | 1012.6 |
| 20260905113004 | 68 | 59 | 0.0 | 0.0 | 0.00 | 0.10 | 0.10 | 93 | 1012.8 |
| 20260905111504 | 68 | 59 | 0.0 | 0.0 | 0.08 | 0.10 | 0.10 | 92 | 1012.9 |
| 20260905110004 | 68 | 59 | 0.0 | 0.0 | 0.09 | 0.10 | 0.10 | 92 | 1013.1 |
| 20260905104504 | 68 | 59 | 0.0 | 0.9 | 0.09 | 0.10 | 0.10 | 91 | 1013.2 |
| 20260905103004 | 68 | 115 | 0.0 | 2.6 | 0.10 | 0.10 | 0.10 | 90 | 1013.3 |
| 20260905101504 | 69 | 44 | 1.7 | 7.0 | 0.02 | 0.02 | 0.02 | 88 | 1014.0 |
| 20260905093004 | 72 | 55 | 1.7 | 2.6 | 0.00 | 0.00 | 0.00 | 93 | 1012.8 |
| 20260905091504 | 72 | 79 | 0.0 | 0.0 | 0.00 | 0.00 | 0.00 | 92 | 1011.2 |
| 20260905090004 | 72 | 79 | 0.0 | 0.0 | 0.00 | 0.00 | 0.00 | 92 | 1010.8 |
| 20260905084504 | 72 | 79 | 0.0 | 0.0 | 0.00 | 0.00 | 0.00 | 93 | 1010.4 |
| 20260905081504 | 72 | 79 | 0.0 | 0.0 | 0.00 | 0.00 | 0.00 | 93 | 1010.8 |
| 20260905080004 | 72 | 79 | 0.0 | 0.0 | 0.00 | 0.00 | 0.00 | 93 | 1010.8 |
| 20260905074504 | 72 | 79 | 0.0 | 0.0 | 0.00 | 0.00 | 0.00 | 93 | 1010.7 |
| 20260905073004 | 71 | 79 | 0.0 | 0.0 | 0.00 | 0.00 | 0.00 | 93 | 1010.6 |
| 20260905064503 | 72 | 79 | 0.0 | 0.0 | 0.00 | 0.00 | 0.00 | 93 | 1010.5 |
| 20260905063004 | 72 | 79 | 0.0 | 0.0 | 0.00 | 0.00 | 0.00 | 93 | 1010.9 |
| 20260905061503 | 72 | 79 | 0.0 | 0.0 | 0.00 | 0.00 | 0.00 | 92 | 1011.0 |
| 20260905060004 | 73 | 79 | 0.0 | 0.0 | 0.00 | 0.00 | 0.00 | 93 | 1011.3 |
| 20260905053003 | 73 | 79 | 0.0 | 0.0 | 0.00 | 0.00 | 0.00 | 93 | 1011.7 |
| 20260905051505 | 73 | 79 | 0.0 | 0.0 | 0.00 | 0.00 | 0.00 | 93 | 1011.8 |
| 20260905050004 | 73 | 79 | 0.0 | 0.0 | 0.00 | 0.00 | 0.00 | 92 | 1011.9 |
| 20260905044504 | 73 | 79 | 0.0 | 0.0 | 0.00 | 0.00 | 0.00 | 92 | 1012.0 |
| 20260905043004 | 73 | 79 | 0.0 | 0.0 | 0.00 | 0.00 | 0.00 | 92 | 1012.0 |
| 20260905041504 | 73 | 79 | 0.0 | 0.0 | 0.00 | 0.00 | 0.00 | 92 | 1012.0 |
| 20260905040004 | 73 | 79 | 0.0 | 0.0 | 0.00 | 0.00 | 0.00 | 91 | 1012.3 |
| 20260905034504 | 73 | 79 | 0.0 | 0.0 | 0.00 | 0.00 | 0.00 | 91 | 1012.3 |
| 20260905031504 | 73 | 79 | 0.0 | 0.0 | 0.00 | 0.00 | 0.00 | 91 | 1012.2 |
| 20260905030004 | 73 | 79 | 0.0 | 0.0 | 0.00 | 0.00 | 0.00 | 90 | 1012.0 |
| 20260905021504 | 74 | 79 | 0.0 | 0.0 | 0.00 | 0.00 | 0.00 | 89 | 1011.9 |
| 20260905020004 | 74 | 79 | 0.0 | 0.0 | 0.00 | 0.00 | 0.00 | 89 | 1011.9 |
| 20260905014504 | 74 | 79 | 0.0 | 0.0 | 0.00 | 0.00 | 0.00 | 89 | 1011.7 |
| 20260905013004 | 75 | 79 | 0.0 | 0.0 | 0.00 | 0.00 | 0.00 | 89 | 1011.6 |
| 20260905004504 | 76 | 79 | 0.0 | 0.0 | 0.00 | 0.00 | 0.00 | 86 | 1011.1 |
| 20260905003003 | 77 | 79 | 0.0 | 0.0 | 0.00 | 0.00 | 0.00 | 85 | 1011.0 |
| 20260905001504 | 77 | 79 | 0.0 | 0.0 | 0.00 | 0.00 | 0.00 | 84 | 1010.7 |
| 20260904234504 | 78 | 79 | 0.0 | 0.0 | 0.00 | 0.00 | 0.00 | 82 | 1010.9 |
| 20260904233004 | 79 | 79 | 0.0 | 0.0 | 0.00 | 0.00 | 0.00 | 82 | 1011.0 |
| 20260904231504 | 79 | 79 | 0.0 | 0.0 | 0.00 | 0.00 | 0.00 | 82 | 1011.0 |
| 20260904230005 | 79 | 79 | 0.0 | 0.0 | 0.00 | 0.00 | 0.00 | 81 | 1011.2 |
| 20260904224504 | 79 | 79 | 0.0 | 0.0 | 0.00 | 0.00 | 0.00 | 80 | 1011.5 |
| 20260904223004 | 79 | 82 | 0.0 | 0.0 | 0.00 | 0.00 | 0.00 | 82 | 1011.7 |
| 20260904221505 | 78 | 82 | 0.0 | 0.9 | 0.00 | 0.00 | 0.00 | 83 | 1011.4 |
| 20260904214504 | 76 | 5 | 0.0 | 0.0 | 0.00 | 0.00 | 0.00 | 87 | 1011.9 |
| 20260904213004 | 76 | 5 | 0.0 | 0.0 | 0.00 | 0.00 | 0.00 | 86 | 1012.1 |